Weather History for Port Hope, MI

Change the Weather History Date:

Wednesday, March 5, 2014

  Actual Average Record
Temperature  
Mean Temperature 14 °F -  
Max Temperature 17 °F 31 °F 55 °F (2004)
Min Temperature 10 °F 20 °F 8 °F (2005)
Degree Days  
Heating Degree Days 52    
Moisture  
Dew Point 9 °F    
Average Humidity 78    
Maximum Humidity 88    
Minimum Humidity 71    
Precipitation  
Precipitation 0.00 in - - ()
Sea Level Pressure  
Sea Level Pressure 30.49 in    
Wind  
Wind Speed 7 mph (NNE)    
Max Wind Speed 14 mph    
Max Gust Speed -    
Averages and records for this station are not official NWS values.
T = Trace of Precipitation, MM = Missing Value Source: NWS Daily Summary

Daily Weather History Graph

Daily Weather History Graph

Search for Another Location

Airport:

Trip Planner

Search our weather history database for the weather conditions in past years. The results will help you decide how hot, cold, wet, or windy it might be!

Date:

Astronomy

Mar. 05, 2014 Rise Set
Actual Time 7:01 AM EST 6:24 PM EST
Civil Twilight 6:32 AM EST 6:53 PM EST
Nautical Twilight 5:59 AM EST 7:27 PM EST
Astronomical Twilight 5:25 AM EST 8:00 PM EST
Moon 9:15 AM EST (3/5) 11:43 PM EST (3/5)
Length of Visible Light 12h 21m
Length of Day
11h 23m
Waxing Crescent, 23% of the Moon is Illuminated
Mar 5
Waxing Crescent
Mar 8
First Quarter
Mar 16
Full
Mar 23
Last Quarter
Mar 30
New

Hourly Weather History & Observations

Time (EST) Temp. Windchill Dew Point Humidity Pressure Visibility Wind Dir Wind Speed Gust Speed Precip Events Conditions
12:51 AM 15.1 °F 7.7 °F 10.0 °F 80% 30.31 in - SW 4.6 mph - N/A   Unknown
1:51 AM 15.1 °F 7.7 °F 10.9 °F 84% 30.32 in - WSW 4.6 mph - N/A   Unknown
2:51 AM 14.0 °F - 10.9 °F 88% 30.32 in - Calm Calm - N/A   Unknown
3:51 AM 17.1 °F 11.7 °F 10.0 °F 74% 30.31 in - North 3.5 mph - N/A   Unknown
4:51 AM 16.0 °F 8.8 °F 12.0 °F 84% 30.34 in - North 4.6 mph - N/A   Unknown
5:51 AM 16.0 °F 8.8 °F 12.0 °F 84% 30.38 in - North 4.6 mph - N/A   Unknown
6:51 AM 16.0 °F 4.4 °F 10.9 °F 81% 30.39 in - North 9.2 mph - N/A   Unknown
7:51 AM 15.1 °F 5.2 °F 10.0 °F 80% 30.42 in - North 6.9 mph - N/A   Unknown
8:51 AM 15.1 °F 5.2 °F 9.0 °F 77% 30.44 in - North 6.9 mph - N/A   Unknown
9:51 AM 17.1 °F 8.7 °F 10.0 °F 74% 30.48 in - NNW 5.8 mph - N/A   Unknown
10:51 AM 17.1 °F 10.0 °F 9.0 °F 71% 30.51 in - North 4.6 mph - N/A   Unknown
11:51 AM 17.1 °F 3.0 °F 10.9 °F 77% 30.51 in - NNE 13.8 mph - N/A   Unknown
12:51 PM 17.1 °F 3.6 °F 10.9 °F 77% 30.53 in - NE 12.7 mph - N/A   Unknown
1:51 PM 17.1 °F 3.6 °F 10.9 °F 77% 30.54 in - NE 12.7 mph - N/A   Unknown
2:51 PM 17.1 °F 4.3 °F 10.0 °F 74% 30.55 in - NE 11.5 mph - N/A   Unknown
3:51 PM 16.0 °F 2.3 °F 10.0 °F 77% 30.56 in - NE 12.7 mph - N/A   Unknown
4:51 PM 15.1 °F 1.1 °F 9.0 °F 77% 30.57 in - NNE 12.7 mph - N/A   Unknown
5:51 PM 14.0 °F -0.2 °F 8.1 °F 77% 30.59 in - NE 12.7 mph - N/A   Unknown
6:51 PM 12.9 °F -0.9 °F 7.0 °F 77% 30.61 in - NE 11.5 mph - N/A   Unknown
7:51 PM 12.0 °F -2.0 °F 6.1 °F 77% 30.60 in - NE 11.5 mph - N/A   Unknown
8:51 PM 10.9 °F 0.2 °F 6.1 °F 81% 30.63 in - NE 6.9 mph - N/A   Unknown
9:51 PM 10.0 °F -2.9 °F 5.0 °F 80% 30.62 in - ENE 9.2 mph - N/A   Unknown
10:51 PM 10.9 °F -2.6 °F 5.0 °F 77% 30.62 in - ENE 10.4 mph - N/A   Unknown
11:51 PM 10.0 °F -4.5 °F 3.9 °F 76% 30.61 in - East 11.5 mph - N/A   Unknown